| time (UTC) | temp C | wind direction | speed KPH | gust KPH | rain 1hr cm | rain 24hr cm | rain mn cm | humidity % | barometer mb |
| 20260507051556 | 16 | 187 | 0.0 | 1.6 | 0.00 | 0.00 | 0.00 | 71 | 1016.5 |
| 20260507051047 | 16 | 187 | 0.0 | 3.2 | 0.00 | 0.00 | 0.00 | 70 | 1016.5 |
| 20260507050552 | 16 | 190 | 0.0 | 3.2 | 0.00 | 0.00 | 0.00 | 70 | 1016.4 |
| 20260507045548 | 16 | 172 | 0.0 | 3.2 | 0.00 | 0.00 | 0.00 | 68 | 1016.3 |
| 20260507045053 | 16 | 172 | 1.6 | 3.2 | 0.00 | 0.00 | 0.00 | 67 | 1016.3 |
| 20260507044601 | 16 | 354 | 0.0 | 3.2 | 0.00 | 0.00 | 0.00 | 67 | 1016.2 |
| 20260507044052 | 16 | 354 | 1.6 | 3.2 | 0.00 | 0.00 | 0.00 | 67 | 1016.3 |
| 20260507043600 | 16 | 342 | 0.0 | 3.2 | 0.00 | 0.00 | 0.00 | 66 | 1016.3 |
| 20260507043049 | 16 | 352 | 3.2 | 3.2 | 0.00 | 0.00 | 0.00 | 66 | 1016.2 |
| 20260507042559 | 16 | 10 | 3.2 | 3.2 | 0.00 | 0.00 | 0.00 | 65 | 1016.2 |
| 20260507042048 | 17 | 358 | 1.6 | 3.2 | 0.00 | 0.00 | 0.00 | 65 | 1016.2 |
| 20260507041558 | 17 | 2 | 3.2 | 4.8 | 0.00 | 0.00 | 0.00 | 65 | 1016.1 |
| 20260507041048 | 17 | 356 | 1.6 | 4.8 | 0.00 | 0.00 | 0.00 | 65 | 1016.0 |
| 20260507040559 | 17 | 19 | 3.2 | 4.8 | 0.00 | 0.00 | 0.00 | 65 | 1016.0 |
| 20260507040108 | 17 | 350 | 0.0 | 3.2 | 0.00 | 0.00 | 0.00 | 65 | 1016.0 |
| 20260507035557 | 17 | 354 | 1.6 | 3.2 | 0.00 | 0.00 | 0.00 | 65 | 1015.9 |
| 20260507035047 | 17 | 360 | 1.6 | 4.8 | 0.00 | 0.00 | 0.00 | 64 | 1015.9 |
| 20260507034557 | 17 | 360 | 1.6 | 4.8 | 0.00 | 0.00 | 0.00 | 64 | 1015.8 |
| 20260507034108 | 17 | 355 | 3.2 | 4.8 | 0.00 | 0.00 | 0.00 | 63 | 1015.6 |
| 20260507033556 | 17 | 357 | 1.6 | 4.8 | 0.00 | 0.00 | 0.00 | 63 | 1015.6 |
| 20260507033048 | 17 | 354 | 1.6 | 8.0 | 0.00 | 0.00 | 0.00 | 63 | 1015.6 |
| 20260507032557 | 18 | 2 | 4.8 | 8.0 | 0.00 | 0.00 | 0.00 | 62 | 1015.6 |
| 20260507032046 | 18 | 352 | 3.2 | 6.4 | 0.00 | 0.00 | 0.00 | 62 | 1015.6 |
| 20260507031614 | 18 | 355 | 1.6 | 6.4 | 0.00 | 0.00 | 0.00 | 61 | 1015.5 |
| 20260507031102 | 18 | 14 | 4.8 | 8.0 | 0.00 | 0.00 | 0.00 | 61 | 1015.5 |
| 20260507030549 | 18 | 15 | 4.8 | 8.0 | 0.00 | 0.00 | 0.00 | 60 | 1015.4 |
| 20260507030054 | 18 | 354 | 4.8 | 11.3 | 0.00 | 0.00 | 0.00 | 59 | 1015.3 |
| 20260507025602 | 19 | 359 | 4.8 | 12.9 | 0.00 | 0.00 | 0.00 | 59 | 1015.3 |
| 20260507025050 | 19 | 6 | 8.0 | 12.9 | 0.00 | 0.00 | 0.00 | 58 | 1015.2 |
| 20260507024557 | 20 | 8 | 8.0 | 12.9 | 0.00 | 0.00 | 0.00 | 57 | 1015.1 |
| 20260507024052 | 20 | 3 | 6.4 | 12.9 | 0.00 | 0.00 | 0.00 | 56 | 1015.1 |
| 20260507023556 | 20 | 339 | 4.8 | 14.5 | 0.00 | 0.00 | 0.00 | 55 | 1015.0 |
| 20260507023125 | 20 | 6 | 6.4 | 14.5 | 0.00 | 0.00 | 0.00 | 55 | 1015.0 |
| 20260507022613 | 20 | 341 | 9.7 | 17.7 | 0.00 | 0.00 | 0.00 | 54 | 1014.9 |
| 20260507022101 | 21 | 344 | 12.9 | 17.7 | 0.00 | 0.00 | 0.00 | 53 | 1014.8 |
| 20260507021550 | 21 | 11 | 9.7 | 16.1 | 0.00 | 0.00 | 0.00 | 52 | 1014.8 |
| 20260507021100 | 21 | 348 | 11.3 | 16.1 | 0.00 | 0.00 | 0.00 | 51 | 1014.7 |
| 20260507020549 | 21 | 9 | 9.7 | 17.7 | 0.00 | 0.00 | 0.00 | 50 | 1014.7 |
| 20260507020057 | 21 | 354 | 9.7 | 17.7 | 0.00 | 0.00 | 0.00 | 50 | 1014.6 |
| 20260507015625 | 22 | 350 | 11.3 | 17.7 | 0.00 | 0.00 | 0.00 | 49 | 1014.5 |
| 20260507015050 | 22 | 7 | 12.9 | 17.7 | 0.00 | 0.00 | 0.00 | 48 | 1014.4 |
| 20260507014616 | 22 | 331 | 11.3 | 17.7 | 0.00 | 0.00 | 0.00 | 47 | 1014.4 |
| 20260507014125 | 22 | 356 | 11.3 | 17.7 | 0.00 | 0.00 | 0.00 | 47 | 1014.4 |
| 20260507013550 | 22 | 16 | 12.9 | 16.1 | 0.00 | 0.00 | 0.00 | 47 | 1014.3 |
| 20260507013100 | 22 | 346 | 11.3 | 19.3 | 0.00 | 0.00 | 0.00 | 46 | 1014.3 |
| 20260507012552 | 22 | 346 | 11.3 | 17.7 | 0.00 | 0.00 | 0.00 | 46 | 1014.2 |
| 20260507012059 | 23 | 354 | 12.9 | 17.7 | 0.00 | 0.00 | 0.00 | 45 | 1014.2 |
| 20260507011625 | 23 | 352 | 12.9 | 19.3 | 0.00 | 0.00 | 0.00 | 44 | 1014.2 |
| 20260507011051 | 23 | 329 | 12.9 | 19.3 | 0.00 | 0.00 | 0.00 | 44 | 1014.2 |
| 20260507010559 | 23 | 353 | 11.3 | 16.1 | 0.00 | 0.00 | 0.00 | 43 | 1014.2 |
| 20260507010108 | 23 | 323 | 9.7 | 16.1 | 0.00 | 0.00 | 0.00 | 43 | 1014.1 |
| 20260507005556 | 24 | 338 | 8.0 | 16.1 | 0.00 | 0.00 | 0.00 | 43 | 1014.1 |
| 20260507005046 | 24 | 327 | 6.4 | 12.9 | 0.00 | 0.00 | 0.00 | 43 | 1014.1 |
| 20260507004555 | 24 | 325 | 6.4 | 14.5 | 0.00 | 0.00 | 0.00 | 43 | 1014.1 |
| 20260507004100 | 24 | 356 | 6.4 | 16.1 | 0.00 | 0.00 | 0.00 | 44 | 1014.1 |
| 20260507003548 | 24 | 323 | 9.7 | 16.1 | 0.00 | 0.00 | 0.00 | 43 | 1014.0 |
| 20260507003056 | 24 | 355 | 9.7 | 16.1 | 0.00 | 0.00 | 0.00 | 43 | 1014.0 |
| 20260507002605 | 24 | 348 | 11.3 | 14.5 | 0.00 | 0.00 | 0.00 | 44 | 1013.9 |
| 20260507002055 | 24 | 323 | 9.7 | 17.7 | 0.00 | 0.00 | 0.00 | 43 | 1013.9 |
| 20260507001604 | 25 | 8 | 8.0 | 17.7 | 0.00 | 0.00 | 0.00 | 43 | 1013.9 |
| 20260507001051 | 25 | 346 | 6.4 | 14.5 | 0.00 | 0.00 | 0.00 | 43 | 1013.9 |
| 20260507000558 | 25 | 333 | 4.8 | 14.5 | 0.00 | 0.00 | 0.00 | 43 | 1013.8 |
| 20260507000049 | 25 | 15 | 6.4 | 16.1 | 0.00 | 0.00 | 0.00 | 42 | 1013.8 |
| 20260506235559 | 25 | 203 | 8.0 | 16.1 | 0.00 | 0.00 | 0.00 | 43 | 1013.8 |
| 20260506235108 | 25 | 337 | 4.8 | 17.7 | 0.00 | 0.00 | 0.00 | 43 | 1013.8 |
| 20260506234617 | 25 | 11 | 9.7 | 17.7 | 0.00 | 0.00 | 0.00 | 43 | 1013.8 |
| 20260506234047 | 25 | 356 | 9.7 | 17.7 | 0.00 | 0.00 | 0.00 | 43 | 1013.7 |
| 20260506233618 | 25 | 360 | 9.7 | 16.1 | 0.00 | 0.00 | 0.00 | 43 | 1013.8 |
| 20260506233046 | 25 | 321 | 8.0 | 17.7 | 0.00 | 0.00 | 0.00 | 43 | 1013.8 |
| 20260506232557 | 25 | 15 | 9.7 | 17.7 | 0.00 | 0.00 | 0.00 | 42 | 1013.9 |
| 20260506232049 | 25 | 344 | 8.0 | 16.1 | 0.00 | 0.00 | 0.00 | 41 | 1013.9 |
| 20260506231558 | 25 | 341 | 3.2 | 12.9 | 0.00 | 0.00 | 0.00 | 42 | 1013.9 |
| 20260506231106 | 25 | 278 | 6.4 | 16.1 | 0.00 | 0.00 | 0.00 | 42 | 1013.9 |
| 20260506230613 | 25 | 321 | 6.4 | 17.7 | 0.00 | 0.00 | 0.00 | 41 | 1013.9 |
| 20260506230058 | 25 | 23 | 9.7 | 20.9 | 0.00 | 0.00 | 0.00 | 42 | 1013.9 |
| 20260506225604 | 25 | 350 | 12.9 | 20.9 | 0.00 | 0.00 | 0.00 | 41 | 1013.9 |
| 20260506225054 | 25 | 2 | 9.7 | 16.1 | 0.00 | 0.00 | 0.00 | 41 | 1014.0 |
| 20260506224604 | 25 | 306 | 8.0 | 16.1 | 0.00 | 0.00 | 0.00 | 39 | 1014.1 |
| 20260506224112 | 26 | 302 | 3.2 | 17.7 | 0.00 | 0.00 | 0.00 | 40 | 1014.1 |
| 20260506223620 | 26 | 328 | 11.3 | 17.7 | 0.00 | 0.00 | 0.00 | 39 | 1014.1 |
| 20260506223050 | 26 | 352 | 9.7 | 19.3 | 0.00 | 0.00 | 0.00 | 39 | 1014.2 |
| 20260506222558 | 25 | 6 | 8.0 | 14.5 | 0.00 | 0.00 | 0.00 | 39 | 1014.2 |
| 20260506222126 | 26 | 344 | 3.2 | 14.5 | 0.00 | 0.00 | 0.00 | 38 | 1014.3 |
| 20260506221551 | 26 | 19 | 6.4 | 16.1 | 0.00 | 0.00 | 0.00 | 37 | 1014.3 |
| 20260506221120 | 26 | 326 | 8.0 | 14.5 | 0.00 | 0.00 | 0.00 | 37 | 1014.4 |
| 20260506220626 | 26 | 77 | 3.2 | 16.1 | 0.00 | 0.00 | 0.00 | 39 | 1014.4 |
| 20260506220052 | 26 | 352 | 8.0 | 16.1 | 0.00 | 0.00 | 0.00 | 37 | 1014.5 |
| 20260506215559 | 26 | 352 | 6.4 | 14.5 | 0.00 | 0.00 | 0.00 | 38 | 1014.5 |
| 20260506215047 | 25 | 352 | 4.8 | 19.3 | 0.00 | 0.00 | 0.00 | 38 | 1014.5 |
| 20260506214555 | 25 | 4 | 9.7 | 19.3 | 0.00 | 0.00 | 0.00 | 38 | 1014.6 |
| 20260506214104 | 25 | 344 | 6.4 | 14.5 | 0.00 | 0.00 | 0.00 | 38 | 1014.7 |
| 20260506213613 | 25 | 2 | 9.7 | 14.5 | 0.00 | 0.00 | 0.00 | 38 | 1014.8 |
| 20260506213122 | 25 | 15 | 8.0 | 14.5 | 0.00 | 0.00 | 0.00 | 39 | 1014.9 |
| 20260506212549 | 24 | 313 | 8.0 | 17.7 | 0.00 | 0.00 | 0.00 | 40 | 1015.0 |
| 20260506212055 | 25 | 17 | 9.7 | 19.3 | 0.00 | 0.00 | 0.00 | 39 | 1015.0 |
| 20260506211602 | 25 | 341 | 8.0 | 17.7 | 0.00 | 0.00 | 0.00 | 39 | 1015.1 |
| 20260506211052 | 25 | 341 | 9.7 | 17.7 | 0.00 | 0.00 | 0.00 | 38 | 1015.1 |
| 20260506210623 | 25 | 323 | 6.4 | 17.7 | 0.00 | 0.00 | 0.00 | 38 | 1015.2 |
| 20260506210113 | 25 | 338 | 6.4 | 11.3 | 0.00 | 0.00 | 0.00 | 39 | 1015.1 |
| 20260506205558 | 25 | 356 | 1.6 | 16.1 | 0.00 | 0.00 | 0.00 | 39 | 1015.2 |
| 20260506205048 | 25 | 121 | 3.2 | 16.1 | 0.00 | 0.00 | 0.00 | 41 | 1015.3 |
| 20260506204559 | 25 | 339 | 4.8 | 12.9 | 0.00 | 0.00 | 0.00 | 40 | 1015.3 |
| 20260506204048 | 24 | 347 | 6.4 | 12.9 | 0.00 | 0.00 | 0.00 | 41 | 1015.3 |
| 20260506203558 | 24 | 350 | 6.4 | 12.9 | 0.00 | 0.00 | 0.00 | 41 | 1015.4 |
| 20260506203105 | 24 | 358 | 3.2 | 14.5 | 0.00 | 0.00 | 0.00 | 41 | 1015.4 |
| 20260506202554 | 23 | 221 | 4.8 | 12.9 | 0.00 | 0.00 | 0.00 | 41 | 1015.5 |
| 20260506202102 | 23 | 330 | 6.4 | 12.9 | 0.00 | 0.00 | 0.00 | 42 | 1015.6 |
| 20260506201553 | 24 | 348 | 6.4 | 11.3 | 0.00 | 0.00 | 0.00 | 41 | 1015.6 |
| 20260506201117 | 24 | 316 | 3.2 | 12.9 | 0.00 | 0.00 | 0.00 | 41 | 1015.8 |
| 20260506200605 | 23 | 332 | 4.8 | 12.9 | 0.00 | 0.00 | 0.00 | 43 | 1015.9 |
| 20260506200056 | 23 | 17 | 6.4 | 12.9 | 0.00 | 0.00 | 0.00 | 43 | 1015.9 |
| 20260506195547 | 23 | 353 | 3.2 | 14.5 | 0.00 | 0.00 | 0.00 | 43 | 1015.9 |
| 20260506195117 | 23 | 347 | 4.8 | 12.9 | 0.00 | 0.00 | 0.00 | 44 | 1016.0 |
| 20260506194548 | 23 | 358 | 8.0 | 14.5 | 0.00 | 0.00 | 0.00 | 43 | 1016.0 |
| 20260506194055 | 22 | 11 | 8.0 | 16.1 | 0.00 | 0.00 | 0.00 | 43 | 1016.1 |
| 20260506193604 | 22 | 351 | 3.2 | 16.1 | 0.00 | 0.00 | 0.00 | 42 | 1016.2 |
| 20260506193052 | 22 | 63 | 4.8 | 16.1 | 0.00 | 0.00 | 0.00 | 43 | 1016.2 |
| 20260506192600 | 22 | 2 | 8.0 | 16.1 | 0.00 | 0.00 | 0.00 | 43 | 1016.3 |
| 20260506192050 | 22 | 11 | 6.4 | 16.1 | 0.00 | 0.00 | 0.00 | 45 | 1016.4 |
| 20260506191618 | 22 | 359 | 11.3 | 16.1 | 0.00 | 0.00 | 0.00 | 44 | 1016.5 |
| 20260506191047 | 22 | 347 | 4.8 | 12.9 | 0.00 | 0.00 | 0.00 | 44 | 1016.5 |
| 20260506190549 | 22 | 206 | 6.4 | 12.9 | 0.00 | 0.00 | 0.00 | 45 | 1016.5 |
| 20260506190057 | 21 | 324 | 3.2 | 12.9 | 0.00 | 0.00 | 0.00 | 45 | 1016.5 |
| 20260506185549 | 22 | 354 | 6.4 | 12.9 | 0.00 | 0.00 | 0.00 | 45 | 1016.7 |
| 20260506185058 | 22 | 355 | 3.2 | 6.4 | 0.00 | 0.00 | 0.00 | 44 | 1016.6 |
| 20260506184546 | 22 | 59 | 1.6 | 12.9 | 0.00 | 0.00 | 0.00 | 44 | 1016.7 |
| 20260506184117 | 22 | 327 | 4.8 | 16.1 | 0.00 | 0.00 | 0.00 | 45 | 1016.8 |
| 20260506183606 | 22 | 11 | 8.0 | 16.1 | 0.00 | 0.00 | 0.00 | 44 | 1016.9 |
| 20260506183053 | 22 | 197 | 3.2 | 6.4 | 0.00 | 0.00 | 0.00 | 43 | 1016.9 |
| 20260506182601 | 22 | 46 | 1.6 | 4.8 | 0.00 | 0.00 | 0.00 | 45 | 1016.9 |
| 20260506182048 | 21 | 209 | 1.6 | 4.8 | 0.00 | 0.00 | 0.00 | 45 | 1016.9 |
| 20260506181558 | 21 | 177 | 3.2 | 4.8 | 0.00 | 0.00 | 0.00 | 49 | 1016.9 |
| 20260506181126 | 20 | 173 | 1.6 | 12.9 | 0.00 | 0.00 | 0.00 | 50 | 1017.0 |
| 20260506180552 | 20 | 4 | 4.8 | 9.7 | 0.00 | 0.00 | 0.00 | 49 | 1017.1 |
| 20260506175552 | 21 | 326 | 1.6 | 9.7 | 0.00 | 0.00 | 0.00 | 47 | 1017.1 |
| 20260506175101 | 20 | 2 | 1.6 | 12.9 | 0.00 | 0.00 | 0.00 | 48 | 1017.0 |
| 20260506174552 | 21 | 17 | 1.6 | 11.3 | 0.00 | 0.00 | 0.00 | 47 | 1017.0 |
| 20260506174102 | 20 | 45 | 1.6 | 11.3 | 0.00 | 0.00 | 0.00 | 49 | 1017.0 |
| 20260506173553 | 20 | 27 | 4.8 | 11.3 | 0.00 | 0.00 | 0.00 | 48 | 1017.0 |
| 20260506173103 | 20 | 335 | 3.2 | 8.0 | 0.00 | 0.00 | 0.00 | 49 | 1017.0 |
| 20260506172551 | 20 | 275 | 1.6 | 6.4 | 0.00 | 0.00 | 0.00 | 50 | 1017.1 |
| 20260506172102 | 20 | 355 | 4.8 | 6.4 | 0.00 | 0.00 | 0.00 | 49 | 1017.1 |
| 20260506171552 | 20 | 129 | 1.6 | 6.4 | 0.00 | 0.00 | 0.00 | 50 | 1017.1 |
| 20260506171100 | 20 | 9 | 3.2 | 6.4 | 0.00 | 0.00 | 0.00 | 50 | 1017.1 |
| 20260506170548 | 20 | 210 | 1.6 | 6.4 | 0.00 | 0.00 | 0.00 | 50 | 1017.1 |
| 20260506170055 | 20 | 244 | 1.6 | 6.4 | 0.00 | 0.00 | 0.00 | 53 | 1017.1 |
| 20260506165604 | 19 | 82 | 0.0 | 4.8 | 0.00 | 0.00 | 0.00 | 53 | 1017.1 |
| 20260506165054 | 18 | 161 | 0.0 | 4.8 | 0.00 | 0.00 | 0.00 | 53 | 1017.1 |
| 20260506164601 | 19 | 341 | 1.6 | 4.8 | 0.00 | 0.00 | 0.00 | 52 | 1017.2 |
| 20260506164049 | 19 | 96 | 0.0 | 3.2 | 0.00 | 0.00 | 0.00 | 54 | 1017.2 |
| 20260506163557 | 18 | 336 | 1.6 | 3.2 | 0.00 | 0.00 | 0.00 | 54 | 1017.2 |
| 20260506163104 | 18 | 321 | 1.6 | 3.2 | 0.00 | 0.00 | 0.00 | 54 | 1017.2 |
| 20260506162554 | 18 | 336 | 0.0 | 3.2 | 0.00 | 0.00 | 0.00 | 54 | 1017.2 |
| 20260506162103 | 18 | 125 | 0.0 | 1.6 | 0.00 | 0.00 | 0.00 | 55 | 1017.2 |
| 20260506161553 | 17 | 11 | 0.0 | 3.2 | 0.00 | 0.00 | 0.00 | 56 | 1017.2 |
| 20260506161124 | 17 | 329 | 0.0 | 4.8 | 0.00 | 0.00 | 0.00 | 55 | 1017.2 |
| 20260506160551 | 17 | 183 | 1.6 | 4.8 | 0.00 | 0.00 | 0.00 | 56 | 1017.2 |
| 20260506160100 | 17 | 204 | 0.0 | 3.2 | 0.00 | 0.00 | 0.00 | 57 | 1017.2 |
| 20260506155608 | 17 | 225 | 1.6 | 3.2 | 0.00 | 0.00 | 0.00 | 57 | 1017.3 |
| 20260506155058 | 17 | 319 | 0.0 | 3.2 | 0.00 | 0.00 | 0.00 | 57 | 1017.4 |
| 20260506154547 | 17 | 185 | 0.0 | 1.6 | 0.00 | 0.00 | 0.00 | 57 | 1017.3 |
| 20260506154056 | 17 | 185 | 0.0 | 1.6 | 0.00 | 0.00 | 0.00 | 59 | 1017.2 |
| 20260506153602 | 17 | 185 | 0.0 | 1.6 | 0.00 | 0.00 | 0.00 | 60 | 1017.2 |
| 20260506153051 | 16 | 185 | 0.0 | 1.6 | 0.00 | 0.00 | 0.00 | 61 | 1017.2 |
| 20260506152558 | 16 | 185 | 0.0 | 1.6 | 0.00 | 0.00 | 0.00 | 64 | 1017.2 |
| 20260506152047 | 15 | 188 | 0.0 | 1.6 | 0.00 | 0.00 | 0.00 | 66 | 1017.3 |
| 20260506151557 | 14 | 188 | 0.0 | 1.6 | 0.00 | 0.00 | 0.00 | 67 | 1017.3 |
| 20260506151048 | 14 | 192 | 0.0 | 1.6 | 0.00 | 0.00 | 0.00 | 68 | 1017.3 |
| 20260506150555 | 13 | 192 | 0.0 | 1.6 | 0.00 | 0.00 | 0.00 | 70 | 1017.2 |
| 20260506150051 | 13 | 192 | 0.0 | 1.6 | 0.00 | 0.00 | 0.00 | 71 | 1017.3 |
| 20260506145555 | 13 | 192 | 0.0 | 1.6 | 0.00 | 0.00 | 0.00 | 72 | 1017.4 |
| 20260506145102 | 13 | 197 | 0.0 | 1.6 | 0.00 | 0.00 | 0.00 | 72 | 1017.4 |
| 20260506144554 | 13 | 15 | 0.0 | 1.6 | 0.00 | 0.00 | 0.00 | 72 | 1017.4 |
| 20260506144103 | 12 | 15 | 0.0 | 0.0 | 0.00 | 0.00 | 0.00 | 73 | 1017.4 |
| 20260506143551 | 12 | 15 | 0.0 | 0.0 | 0.00 | 0.00 | 0.00 | 75 | 1017.3 |
| 20260506143100 | 11 | 15 | 0.0 | 0.0 | 0.00 | 0.00 | 0.00 | 74 | 1017.2 |
| 20260506142610 | 11 | 15 | 0.0 | 1.6 | 0.00 | 0.00 | 0.00 | 77 | 1017.4 |
| 20260506142058 | 10 | 14 | 0.0 | 1.6 | 0.00 | 0.00 | 0.00 | 80 | 1017.3 |
| 20260506141606 | 10 | 15 | 0.0 | 1.6 | 0.00 | 0.00 | 0.00 | 81 | 1017.2 |
| 20260506141055 | 9 | 15 | 0.0 | 1.6 | 0.00 | 0.00 | 0.00 | 82 | 1017.3 |
| 20260506140601 | 9 | 14 | 0.0 | 0.0 | 0.00 | 0.00 | 0.00 | 82 | 1017.2 |
| 20260506140048 | 9 | 14 | 0.0 | 1.6 | 0.00 | 0.00 | 0.00 | 81 | 1017.1 |
| 20260506135553 | 9 | 14 | 0.0 | 1.6 | 0.00 | 0.00 | 0.00 | 83 | 1017.1 |
| 20260506135102 | 9 | 15 | 0.0 | 1.6 | 0.00 | 0.00 | 0.00 | 82 | 1017.2 |
| 20260506134549 | 9 | 14 | 0.0 | 1.6 | 0.00 | 0.00 | 0.00 | 83 | 1017.0 |
| 20260506134058 | 8 | 14 | 0.0 | 1.6 | 0.00 | 0.00 | 0.00 | 83 | 1017.0 |
| 20260506133548 | 8 | 17 | 0.0 | 1.6 | 0.00 | 0.00 | 0.00 | 83 | 1016.9 |
| 20260506133054 | 8 | 17 | 0.0 | 1.6 | 0.00 | 0.00 | 0.00 | 84 | 1016.8 |
| 20260506132617 | 8 | 17 | 0.0 | 1.6 | 0.00 | 0.00 | 0.00 | 83 | 1016.8 |
| 20260506132049 | 8 | 17 | 0.0 | 0.0 | 0.00 | 0.00 | 0.00 | 83 | 1016.7 |
| 20260506131600 | 8 | 17 | 0.0 | 0.0 | 0.00 | 0.00 | 0.00 | 83 | 1016.7 |
| 20260506131048 | 8 | 17 | 0.0 | 1.6 | 0.00 | 0.00 | 0.00 | 84 | 1016.6 |
| 20260506130558 | 8 | 17 | 0.0 | 1.6 | 0.00 | 0.00 | 0.00 | 84 | 1016.6 |
| 20260506130106 | 8 | 17 | 0.0 | 1.6 | 0.00 | 0.03 | 0.00 | 84 | 1016.7 |
| 20260506125612 | 8 | 63 | 0.0 | 1.6 | 0.00 | 0.03 | 0.00 | 84 | 1016.6 |
| 20260506125059 | 8 | 63 | 0.0 | 1.6 | 0.00 | 0.03 | 0.00 | 84 | 1016.6 |
| 20260506124553 | 8 | 64 | 0.0 | 1.6 | 0.00 | 0.03 | 0.00 | 82 | 1016.6 |
| 20260506124105 | 8 | 64 | 0.0 | 1.6 | 0.00 | 0.03 | 0.00 | 82 | 1016.5 |
| 20260506123553 | 8 | 64 | 0.0 | 1.6 | 0.00 | 0.03 | 0.00 | 83 | 1016.5 |
| 20260506123104 | 8 | 63 | 0.0 | 1.6 | 0.00 | 0.03 | 0.00 | 82 | 1016.5 |
| 20260506122554 | 8 | 63 | 0.0 | 1.6 | 0.00 | 0.03 | 0.00 | 81 | 1016.5 |
| 20260506122103 | 9 | 64 | 0.0 | 1.6 | 0.00 | 0.03 | 0.00 | 81 | 1016.4 |
| 20260506121552 | 9 | 63 | 0.0 | 1.6 | 0.00 | 0.03 | 0.00 | 81 | 1016.3 |
| 20260506121123 | 9 | 63 | 0.0 | 1.6 | 0.00 | 0.03 | 0.00 | 81 | 1016.3 |
| 20260506120552 | 8 | 129 | 0.0 | 1.6 | 0.00 | 0.03 | 0.00 | 82 | 1016.3 |
| 20260506120101 | 8 | 138 | 0.0 | 1.6 | 0.00 | 0.03 | 0.00 | 82 | 1016.3 |
| 20260506115551 | 8 | 138 | 0.0 | 1.6 | 0.00 | 0.03 | 0.00 | 81 | 1016.3 |
| 20260506115100 | 8 | 124 | 0.0 | 3.2 | 0.00 | 0.03 | 0.00 | 83 | 1016.4 |
| 20260506114548 | 8 | 50 | 0.0 | 1.6 | 0.00 | 0.03 | 0.00 | 81 | 1016.4 |
| 20260506114056 | 9 | 50 | 0.0 | 1.6 | 0.00 | 0.03 | 0.00 | 80 | 1016.3 |
| 20260506113605 | 9 | 2 | 0.0 | 1.6 | 0.00 | 0.03 | 0.00 | 80 | 1016.4 |
| 20260506113051 | 9 | 2 | 0.0 | 1.6 | 0.00 | 0.03 | 0.00 | 81 | 1016.3 |
| 20260506112620 | 9 | 2 | 0.0 | 1.6 | 0.00 | 0.03 | 0.00 | 82 | 1016.3 |
| 20260506112106 | 8 | 32 | 0.0 | 0.0 | 0.00 | 0.03 | 0.00 | 82 | 1016.3 |
| 20260506111555 | 8 | 32 | 0.0 | 0.0 | 0.00 | 0.03 | 0.00 | 83 | 1016.3 |
| 20260506111126 | 8 | 32 | 0.0 | 0.0 | 0.00 | 0.03 | 0.00 | 83 | 1016.3 |
| 20260506110617 | 8 | 32 | 0.0 | 0.0 | 0.00 | 0.03 | 0.00 | 82 | 1016.3 |
| 20260506110105 | 8 | 32 | 0.0 | 0.0 | 0.00 | 0.03 | 0.00 | 83 | 1016.3 |
| 20260506105554 | 8 | 31 | 0.0 | 1.6 | 0.00 | 0.03 | 0.00 | 82 | 1016.3 |
| 20260506105102 | 8 | 31 | 0.0 | 1.6 | 0.00 | 0.03 | 0.00 | 82 | 1016.2 |
| 20260506104552 | 8 | 350 | 0.0 | 1.6 | 0.00 | 0.03 | 0.00 | 82 | 1016.2 |
| 20260506104104 | 8 | 350 | 0.0 | 0.0 | 0.00 | 0.03 | 0.00 | 82 | 1016.3 |
| 20260506103613 | 8 | 350 | 0.0 | 1.6 | 0.00 | 0.03 | 0.00 | 82 | 1016.3 |
| 20260506103121 | 8 | 350 | 0.0 | 1.6 | 0.00 | 0.03 | 0.00 | 82 | 1016.3 |
| 20260506102549 | 8 | 177 | 0.0 | 1.6 | 0.00 | 0.03 | 0.00 | 83 | 1016.3 |
| 20260506102101 | 8 | 177 | 0.0 | 1.6 | 0.00 | 0.03 | 0.00 | 82 | 1016.3 |
| 20260506101549 | 8 | 177 | 0.0 | 1.6 | 0.00 | 0.03 | 0.00 | 83 | 1016.3 |
| 20260506101059 | 8 | 177 | 0.0 | 1.6 | 0.00 | 0.03 | 0.00 | 82 | 1016.3 |
| 20260506100548 | 9 | 177 | 0.0 | 1.6 | 0.00 | 0.03 | 0.00 | 82 | 1016.2 |
| 20260506100058 | 8 | 177 | 0.0 | 1.6 | 0.00 | 0.03 | 0.00 | 82 | 1016.2 |
| 20260506095606 | 9 | 177 | 0.0 | 0.0 | 0.00 | 0.03 | 0.00 | 81 | 1016.2 |
| 20260506095053 | 9 | 177 | 0.0 | 0.0 | 0.00 | 0.03 | 0.00 | 81 | 1016.3 |
| 20260506094600 | 10 | 177 | 0.0 | 1.6 | 0.00 | 0.03 | 0.00 | 80 | 1016.3 |
| 20260506094048 | 9 | 177 | 0.0 | 1.6 | 0.00 | 0.03 | 0.00 | 82 | 1016.3 |
| 20260506093554 | 9 | 177 | 0.0 | 1.6 | 0.00 | 0.03 | 0.00 | 82 | 1016.3 |
| 20260506093104 | 9 | 177 | 0.0 | 1.6 | 0.00 | 0.03 | 0.00 | 81 | 1016.3 |
| 20260506092552 | 9 | 178 | 0.0 | 0.0 | 0.00 | 0.03 | 0.00 | 80 | 1016.3 |
| 20260506092101 | 9 | 178 | 0.0 | 0.0 | 0.00 | 0.03 | 0.00 | 80 | 1016.3 |
| 20260506091550 | 10 | 178 | 0.0 | 1.6 | 0.00 | 0.03 | 0.00 | 80 | 1016.3 |
| 20260506091100 | 10 | 178 | 0.0 | 1.6 | 0.00 | 0.03 | 0.00 | 79 | 1016.3 |
| 20260506090549 | 10 | 177 | 0.0 | 1.6 | 0.00 | 0.03 | 0.00 | 78 | 1016.3 |
| 20260506090100 | 10 | 178 | 0.0 | 1.6 | 0.00 | 0.03 | 0.00 | 79 | 1016.3 |
| 20260506085556 | 10 | 178 | 0.0 | 1.6 | 0.00 | 0.03 | 0.00 | 77 | 1016.3 |
| 20260506085105 | 10 | 178 | 0.0 | 1.6 | 0.00 | 0.03 | 0.00 | 77 | 1016.4 |
| 20260506084552 | 10 | 185 | 0.0 | 0.0 | 0.00 | 0.03 | 0.00 | 79 | 1016.4 |
| 20260506084059 | 10 | 185 | 0.0 | 1.6 | 0.00 | 0.03 | 0.00 | 77 | 1016.5 |
| 20260506083609 | 11 | 185 | 0.0 | 1.6 | 0.00 | 0.03 | 0.00 | 79 | 1016.5 |
| 20260506083055 | 11 | 331 | 0.0 | 1.6 | 0.00 | 0.03 | 0.00 | 79 | 1016.5 |
| 20260506082604 | 11 | 331 | 0.0 | 3.2 | 0.00 | 0.03 | 0.00 | 79 | 1016.5 |
| 20260506082054 | 10 | 327 | 0.0 | 3.2 | 0.00 | 0.03 | 0.00 | 80 | 1016.5 |
| 20260506081625 | 11 | 175 | 0.0 | 1.6 | 0.00 | 0.03 | 0.00 | 79 | 1016.5 |
| 20260506081054 | 11 | 175 | 0.0 | 3.2 | 0.00 | 0.03 | 0.00 | 79 | 1016.6 |
| 20260506080606 | 11 | 50 | 0.0 | 3.2 | 0.00 | 0.03 | 0.00 | 78 | 1016.6 |
| 20260506073047 | 10 | 344 | 0.0 | 1.6 | 0.00 | 0.03 | 0.00 | 75 | 1016.7 |
| 20260506072557 | 11 | 344 | 0.0 | 1.6 | 0.00 | 0.03 | 0.00 | 74 | 1016.7 |
| 20260506072048 | 11 | 344 | 0.0 | 1.6 | 0.00 | 0.03 | 0.00 | 73 | 1016.7 |
| 20260506071558 | 11 | 142 | 0.0 | 1.6 | 0.00 | 0.03 | 0.00 | 73 | 1016.7 |
| 20260506071047 | 11 | 142 | 0.0 | 1.6 | 0.00 | 0.03 | 0.00 | 73 | 1016.7 |
| 20260506070555 | 11 | 142 | 0.0 | 1.6 | 0.00 | 0.03 | 0.00 | 73 | 1016.6 |
| 20260506070103 | 11 | 142 | 0.0 | 1.6 | 0.00 | 0.03 | 0.03 | 72 | 1016.6 |
| 20260506062112 | 12 | 144 | 0.0 | 6.4 | 0.00 | 0.03 | 0.03 | 68 | 1016.1 |
| 20260506061600 | 12 | 51 | 1.6 | 6.4 | 0.00 | 0.03 | 0.03 | 68 | 1016.2 |
| 20260506061050 | 12 | 167 | 1.6 | 3.2 | 0.00 | 0.03 | 0.03 | 69 | 1016.1 |
| 20260506060620 | 11 | 234 | 0.0 | 1.6 | 0.00 | 0.03 | 0.03 | 70 | 1016.1 |
| 20260506060108 | 11 | 297 | 0.0 | 1.6 | 0.00 | 0.03 | 0.03 | 70 | 1016.1 |